Location: Kermapucano
(48.0667°N, 3.3000°W)
Time: 19:38:34
(UTC+00:00)

USA 306 - Pass Details

Date: 29 November 2020
Orbit: 565 x 579 km, 54.0° (Epoch: 22 January)

Event Time Altitude Azimuth Distance (km) Brightness Sun altitude
Exits shadow 05:49:10 30° 325° (NW) 1,064 3.9 -17.9°
Maximum altitude 05:50:37 39° 8° (N) 878 3.8 -17.6°
Drops below altitude 10° 05:54:41 10° 78° (ENE) 1,895 6.6 -17.0°
Sets 05:57:04 0° 86° (E) 2,793 7.9 -16.6°
